When you browse on this site, cookies collect data to enhance your experience and personalize the content and advertising you see.
Visit our Privacy Policy to learn more. By continuing to use the site, you agree to this use of cookies and data.
  • în România
  • Lista ţărilor
  • Pe 7 zile
  • Temperatura apei
  • Meteo pe hartă
  • Widget-uri
  • user-avatar
    Intrare

    Meteo pe oră la Basse Santa Su

    Astăzi, 7 Decembrie, Sâmbătă

    Timp Temperatura Precipitaţii Vânt Presiune Umiditate
    00:00 +23°C° 0 mm 2 m/s 757 mmHg 26%
    01:00 +21°C° 0 mm 2 m/s 757 mmHg 27%
    02:00 +21°C° 0 mm 2 m/s 756 mmHg 28%
    03:00 +20°C° 0 mm 2 m/s 757 mmHg 29%
    04:00 +20°C° 0 mm 2 m/s 757 mmHg 29%
    05:00 +19°C° 0 mm 2 m/s 757 mmHg 29%
    06:00 +21°C° 0 mm 2 m/s 757 mmHg 27%
    07:00 +24°C° 0 mm 2 m/s 758 mmHg 24%
    08:00 +25°C° 0 mm 2 m/s 758 mmHg 21%
    09:00 +28°C° 0 mm 2 m/s 758 mmHg 18%
    10:00 +33°C° 0 mm 3 m/s 757 mmHg 15%
    11:00 +36°C° 0 mm 3 m/s 757 mmHg 12%
    12:00 +37°C° 0 mm 3 m/s 756 mmHg 11%
    13:00 +38°C° 0 mm 2 m/s 756 mmHg 11%
    14:00 +39°C° 0 mm 2 m/s 755 mmHg 10%
    15:00 +38°C° 0 mm 2 m/s 755 mmHg 12%
    16:00 +36°C° 0 mm 1 m/s 755 mmHg 13%
    17:00 +35°C° 0 mm 1 m/s 755 mmHg 14%
    18:00 +34°C° 0 mm 2 m/s 755 mmHg 15%
    19:00 +30°C° 0 mm 2 m/s 756 mmHg 17%
    20:00 +28°C° 0 mm 2 m/s 757 mmHg 18%
    21:00 +28°C° 0 mm 2 m/s 757 mmHg 18%
    22:00 +27°C° 0 mm 2 m/s 757 mmHg 19%
    23:00 +26°C° 0 mm 2 m/s 757 mmHg 19%

    Mâine, 8 Decembrie, Duminică

    Timp Temperatura Precipitaţii Vânt Presiune Umiditate
    00:00 +25°C° 0 mm 2 m/s 757 mmHg 19%
    01:00 +25°C° 0 mm 2 m/s 757 mmHg 20%
    02:00 +24°C° 0 mm 2 m/s 756 mmHg 20%
    03:00 +24°C° 0 mm 2 m/s 756 mmHg 21%
    04:00 +23°C° 0 mm 2 m/s 756 mmHg 23%
    05:00 +23°C° 0 mm 2 m/s 756 mmHg 24%
    06:00 +24°C° 0 mm 2 m/s 757 mmHg 23%
    07:00 +26°C° 0 mm 3 m/s 757 mmHg 22%
    08:00 +27°C° 0 mm 3 m/s 758 mmHg 21%
    09:00 +30°C° 0 mm 3 m/s 757 mmHg 18%
    10:00 +34°C° 0 mm 3 m/s 757 mmHg 16%
    11:00 +37°C° 0 mm 3 m/s 757 mmHg 13%
    12:00 +38°C° 0 mm 3 m/s 756 mmHg 12%
    13:00 +40°C° 0 mm 3 m/s 755 mmHg 11%
    14:00 +42°C° 0 mm 3 m/s 754 mmHg 10%
    15:00 +39°C° 0 mm 3 m/s 754 mmHg 11%
    16:00 +38°C° 0 mm 2 m/s 754 mmHg 12%
    17:00 +37°C° 0 mm 2 m/s 754 mmHg 13%
    18:00 +35°C° 0 mm 2 m/s 754 mmHg 14%
    19:00 +32°C° 0 mm 2 m/s 755 mmHg 16%
    20:00 +30°C° 0 mm 2 m/s 756 mmHg 17%
    21:00 +29°C° 0 mm 2 m/s 756 mmHg 18%
    22:00 +29°C° 0 mm 2 m/s 756 mmHg 19%
    23:00 +28°C° 0 mm 2 m/s 756 mmHg 20%

    Poimâine, 9 Decembrie, Luni

    Timp Temperatura Precipitaţii Vânt Presiune Umiditate
    00:00 +27°C° 0 mm 2 m/s 756 mmHg 21%
    01:00 +26°C° 0 mm 2 m/s 756 mmHg 22%
    02:00 +26°C° 0 mm 2 m/s 756 mmHg 23%
    03:00 +25°C° 0 mm 2 m/s 756 mmHg 24%
    04:00 +24°C° 0 mm 2 m/s 756 mmHg 25%
    05:00 +24°C° 0 mm 2 m/s 756 mmHg 26%
    06:00 +25°C° 0 mm 2 m/s 756 mmHg 23%
    07:00 +27°C° 0 mm 3 m/s 757 mmHg 20%
    08:00 +28°C° 0 mm 3 m/s 757 mmHg 17%
    09:00 +33°C° 0 mm 3 m/s 757 mmHg 14%
    10:00 +36°C° 0 mm 4 m/s 757 mmHg 11%
    11:00 +40°C° 0 mm 4 m/s 756 mmHg 7%
    12:00 +41°C° 0 mm 4 m/s 755 mmHg 7%
    13:00 +42°C° 0 mm 4 m/s 754 mmHg 7%
    14:00 +43°C° 0 mm 3 m/s 754 mmHg 6%
    15:00 +40°C° 0 mm 3 m/s 754 mmHg 7%
    16:00 +39°C° 0 mm 2 m/s 754 mmHg 8%
    17:00 +37°C° 0 mm 1 m/s 754 mmHg 9%
    18:00 +35°C° 0 mm 2 m/s 754 mmHg 10%
    19:00 +32°C° 0 mm 2 m/s 755 mmHg 11%
    20:00 +30°C° 0 mm 2 m/s 755 mmHg 12%
    21:00 +29°C° 0 mm 2 m/s 756 mmHg 12%
    22:00 +28°C° 0 mm 2 m/s 756 mmHg 12%
    23:00 +27°C° 0 mm 2 m/s 756 mmHg 13%

    10 Decembrie, Marţi

    Timp Temperatura Precipitaţii Vânt Presiune Umiditate
    00:00 +26°C° 0 mm 2 m/s 756 mmHg 14%
    01:00 +25°C° 0 mm 2 m/s 756 mmHg 16%
    02:00 +24°C° 0 mm 2 m/s 756 mmHg 17%
    03:00 +23°C° 0 mm 1 m/s 756 mmHg 23%
    04:00 +22°C° 0 mm 1 m/s 756 mmHg 29%
    05:00 +20°C° 0 mm 0 m/s 756 mmHg 34%
    06:00 +22°C° 0 mm 0 m/s 756 mmHg 29%
    07:00 +24°C° 0 mm 0 m/s 757 mmHg 25%
    08:00 +28°C° 0 mm 1 m/s 757 mmHg 20%
    09:00 +31°C° 0 mm 1 m/s 757 mmHg 16%
    10:00 +35°C° 0 mm 2 m/s 757 mmHg 12%
    11:00 +38°C° 0 mm 3 m/s 756 mmHg 7%
    12:00 +39°C° 0 mm 3 m/s 755 mmHg 7%
    13:00 +40°C° 0 mm 3 m/s 755 mmHg 7%
    14:00 +42°C° 0 mm 3 m/s 754 mmHg 7%
    15:00 +40°C° 0 mm 2 m/s 754 mmHg 8%
    16:00 +38°C° 0 mm 2 m/s 754 mmHg 9%
    17:00 +37°C° 0 mm 2 m/s 754 mmHg 10%
    18:00 +35°C° 0 mm 2 m/s 754 mmHg 10%
    19:00 +32°C° 0 mm 1 m/s 755 mmHg 11%
    20:00 +31°C° 0 mm 1 m/s 756 mmHg 11%
    21:00 +29°C° 0 mm 1 m/s 756 mmHg 12%
    22:00 +28°C° 0 mm 1 m/s 756 mmHg 12%
    23:00 +27°C° 0 mm 2 m/s 756 mmHg 13%

    11 Decembrie, Miercuri

    Timp Temperatura Precipitaţii Vânt Presiune Umiditate
    00:00 +26°C° 0 mm 2 m/s 756 mmHg 20%
    01:00 +24°C° 0 mm 2 m/s 756 mmHg 27%
    02:00 +23°C° 0 mm 2 m/s 756 mmHg 34%
    03:00 +22°C° 0 mm 1 m/s 756 mmHg 42%
    04:00 +21°C° 0 mm 1 m/s 756 mmHg 49%
    05:00 +18°C° 0 mm 0 m/s 756 mmHg 57%
    06:00 +21°C° 0 mm 0 m/s 756 mmHg 47%
    07:00 +25°C° 0 mm 1 m/s 757 mmHg 38%
    08:00 +27°C° 0 mm 1 m/s 757 mmHg 28%
    09:00 +30°C° 0 mm 2 m/s 757 mmHg 22%
    10:00 +34°C° 0 mm 2 m/s 756 mmHg 15%
    11:00 +38°C° 0 mm 3 m/s 756 mmHg 9%
    12:00 +39°C° 0 mm 3 m/s 755 mmHg 8%
    13:00 +40°C° 0 mm 3 m/s 754 mmHg 8%
    14:00 +42°C° 0 mm 3 m/s 753 mmHg 7%
    15:00 +40°C° 0 mm 2 m/s 753 mmHg 7%
    16:00 +38°C° 0 mm 2 m/s 753 mmHg 8%
    17:00 +36°C° 0 mm 1 m/s 753 mmHg 8%
    18:00 +33°C° 0 mm 1 m/s 754 mmHg 8%
    19:00 +31°C° 0 mm 1 m/s 754 mmHg 9%
    20:00 +29°C° 0 mm 2 m/s 755 mmHg 10%
    21:00 +28°C° 0 mm 2 m/s 755 mmHg 11%
    22:00 +26°C° 0 mm 2 m/s 756 mmHg 12%
    23:00 +25°C° 0 mm 2 m/s 756 mmHg 13%

    12 Decembrie, Joi

    Timp Temperatura Precipitaţii Vânt Presiune Umiditate
    00:00 +24°C° 0 mm 2 m/s 756 mmHg 14%
    01:00 +23°C° 0 mm 1 m/s 755 mmHg 15%
    02:00 +22°C° 0 mm 1 m/s 755 mmHg 17%
    03:00 +22°C° 0 mm 1 m/s 755 mmHg 17%
    04:00 +21°C° 0 mm 1 m/s 755 mmHg 18%
    05:00 +18°C° 0 mm 0 m/s 756 mmHg 19%
    06:00 +22°C° 0 mm 1 m/s 756 mmHg 18%
    07:00 +24°C° 0 mm 2 m/s 757 mmHg 16%
    08:00 +26°C° 0 mm 3 m/s 757 mmHg 15%
    09:00 +30°C° 0 mm 3 m/s 757 mmHg 13%
    10:00 +34°C° 0 mm 3 m/s 757 mmHg 11%
    11:00 +37°C° 0 mm 3 m/s 756 mmHg 9%
    12:00 +39°C° 0 mm 3 m/s 755 mmHg 8%
    13:00 +40°C° 0 mm 3 m/s 754 mmHg 8%
    14:00 +42°C° 0 mm 3 m/s 754 mmHg 8%
    15:00 +40°C° 0 mm 2 m/s 754 mmHg 9%
    16:00 +39°C° 0 mm 2 m/s 754 mmHg 10%
    17:00 +36°C° 0 mm 1 m/s 754 mmHg 10%
    18:00 +34°C° 0 mm 1 m/s 754 mmHg 11%
    19:00 +31°C° 0 mm 2 m/s 755 mmHg 12%
    20:00 +29°C° 0 mm 2 m/s 756 mmHg 13%
    21:00 +28°C° 0 mm 2 m/s 756 mmHg 14%
    22:00 +27°C° 0 mm 2 m/s 756 mmHg 14%
    23:00 +26°C° 0 mm 2 m/s 756 mmHg 15%
    Arată mai mult